Flag for U.S.A. Weather past 2 weeks in New Orleans, Louisiana, U.S.A.

Now
79 °F

Sunny.


Feels Like: 78 °F
Forecast: 66 / 82 °F
Wind: 3 mph from North

Location: Lakefront Airport

Current Time: Apr 21, 2015 at 7:10:05 PM

Latest Report: Apr 21, 2015 at 5:53 PM


Visibility: 10 mi

Pressure: 29.97 "Hg

Humidity: 28%

Dew point: 43 °F

Location of New OrleansLocation

Historic Weather in New Orleans — Graph

°F

New Orleans temperature yesterday

Maximum temperature yesterday: 79 °F (at 2:53 PM)
Minimum temperature yesterday: 71 °F (at 11:53 PM)
Average temperature yesterday: 76 °F

Past Weeks' High & Low Weather Summary

 TemperatureHumidityPressure
High87 °F (Apr 8, 2:53 PM)90% (Apr 14, 4:53 AM)30.14 "Hg (Apr 14, 4:53 AM)
Low68 °F (Apr 14, 9:53 PM)28% (Apr 21, 4:53 PM)29.74 "Hg (Apr 19, 6:53 AM)
Average76 °F75%29.98 "Hg
* Reported Apr 6 5:53 PM — Apr 21 5:53 PM, New Orleans, Weather by CustomWeather, © 2015

Note: Actual official high and low records may vary slightly from our data, if they occured in-between our weather recording intervals... More about our weather records

Advertising

New Orleans weather history for previous 24 hours

 ConditionsComfort  
Time TempWeatherWind HumidityBarometerVisibility
5:53 PM
Tue, Apr 21
79 °FSunny.3 mph28%29.97 "Hg10 mi
4:53 PM78 °FSunny.3 mph28%29.96 "Hg10 mi
3:53 PM77 °FSunny.5 mph32%29.97 "Hg10 mi
2:53 PM77 °FSunny.7 mph32%29.98 "Hg10 mi
1:53 PM77 °FSunny.8 mph36%30.01 "Hg10 mi
12:53 PM76 °FSunny.10 mph33%30.02 "Hg10 mi
11:53 AM75 °FSunny.10 mph37%30.05 "Hg10 mi
10:53 AM72 °FSunny.12 mph41%30.06 "Hg10 mi
9:53 AM71 °FSunny.10 mph44%30.06 "Hg10 mi
8:53 AM69 °FSunny.13 mph51%30.03 "Hg10 mi
7:53 AM69 °FSunny.14 mph47%30.03 "Hg10 mi
6:53 AM69 °FClear.15 mph47%30.01 "Hg10 mi
5:53 AM69 °FClear.17 mph47%29.98 "Hg10 mi
4:53 AM70 °FClear.15 mph47%29.97 "Hg10 mi
3:53 AM70 °FClear.15 mph46%29.95 "Hg10 mi
2:53 AM70 °FClear.15 mph47%29.95 "Hg10 mi
1:53 AM70 °FClear.14 mph49%29.95 "Hg10 mi
12:53 AM71 °FClear.14 mph44%29.95 "Hg10 mi
11:53 PM
Mon, Apr 20
71 °FClear.13 mph47%29.95 "Hg10 mi
10:53 PM72 °FClear.16 mph48%29.96 "Hg10 mi
9:53 PM73 °FClear.15 mph48%29.95 "Hg10 mi
8:53 PM74 °FClear.13 mph46%29.93 "Hg10 mi
7:53 PM74 °FSunny.15 mph50%29.90 "Hg10 mi
Weather by CustomWeather, © 2015

See weather overviewHow to use our weather pages